Home > Weather > Papeete > Past weeks

Flag for French Polynesia Weather for the Past 2 Weeks in Papeete, Tahiti, French Polynesia

Now
81 °F

Scattered clouds.


Feels Like: 85 °F
Forecast: 77 / 89 °F
Wind: 3 mph from North

Location: Tahiti-Faaa

Current Time: Feb 8, 2016 at 7:42:49 AM

Latest Report: Feb 8, 2016 at 7:00 AM


Visibility: N/A

Pressure: 29.89 "Hg

Humidity: 79%

Dew point: 73 °F

Location of PapeeteLocation

Historic Weather in Papeete — Graph

°F

Papeete Temperature Yesterday

Maximum temperature yesterday: 90 °F (at 1:00 PM)
Minimum temperature yesterday: 79 °F (at 3:30 AM)
Average temperature yesterday: 84 °F

High & Low Weather Summary for the Past Weeks

 TemperatureHumidityPressure
High91 °F (Feb 3, 12:30 PM)94% (Jan 30, 11:00 PM)29.98 "Hg (Jan 30, 11:00 PM)
Low75 °F (Jan 25, 3:30 AM)51% (Jan 25, 6:00 PM)29.80 "Hg (Jan 25, 3:00 PM)
Average83 °F74%29.88 "Hg
* Reported Jan 24 6:00 AM — Feb 8 6:30 AM, Papeete, Weather by CustomWeather, © 2016

Note: Actual official high and low records may vary slightly from our data, if they occured in-between our weather recording intervals... More about our weather records

Advertising

Papeete Weather History for the Previous 24 Hours

 ConditionsComfort  
Time TempWeatherWind HumidityBarometerVisibility
6:30 AM
Mon, Feb 8
79 °FPassing clouds.3 mph89%29.89 "HgN/A
6:00 AM79 °FScattered showers. Passing clouds.1 mph84%29.86 "HgN/A
5:30 AM79 °FWarm.2 mph84%29.86 "HgN/A
5:00 AM79 °FWarm.2 mph84%29.86 "HgN/A
4:30 AM79 °FWarm.5 mph84%29.83 "HgN/A
4:00 AM81 °FWarm.3 mph79%29.83 "HgN/A
3:30 AM79 °FWarm.2 mph84%29.86 "HgN/A
3:00 AM79 °FPassing clouds.3 mph79%29.86 "HgN/A
2:30 AM79 °FPassing clouds.3 mph84%29.86 "HgN/A
2:00 AM81 °FPassing clouds.3 mph79%29.86 "HgN/A
1:30 AM81 °FPassing clouds.3 mph79%29.86 "HgN/A
1:00 AM81 °FPassing clouds.3 mph79%29.86 "HgN/A
12:30 AM81 °FPassing clouds.1 mph79%29.86 "HgN/A
12:00 AM81 °FPassing clouds.2 mph79%29.86 "HgN/A
11:30 PM
Sun, Feb 7
81 °FPassing clouds.5 mph79%29.89 "HgN/A
11:00 PM81 °FPassing clouds.7 mph79%29.89 "HgN/A
10:30 PM81 °FPassing clouds.3 mph79%29.89 "HgN/A
10:00 PM81 °FPassing clouds.3 mph79%29.89 "HgN/A
9:30 PM82 °FPassing clouds.2 mph79%29.89 "HgN/A
9:00 PM82 °FPassing clouds.No wind79%29.89 "HgN/A
8:30 PM82 °FPassing clouds.2 mph79%29.86 "HgN/A
8:00 PM84 °FPassing clouds.3 mph74%29.86 "HgN/A
7:30 PM84 °FPassing clouds.6 mph74%29.86 "HgN/A
7:00 PM84 °FScattered showers. Passing clouds.5 mph74%29.86 "HgN/A
6:30 PM84 °FScattered showers. Scattered clouds.6 mph74%29.83 "HgN/A
6:00 PM86 °FScattered showers. Scattered clouds.6 mph70%29.83 "HgN/A
5:30 PM88 °FScattered clouds.5 mph66%29.83 "HgN/A
5:00 PM88 °FScattered clouds.8 mph62%29.83 "HgN/A
4:30 PM90 °FPartly sunny.12 mph63%29.80 "HgN/A
4:00 PM88 °FPartly sunny.9 mph70%29.80 "HgN/A
3:00 PM88 °FScattered clouds.16 mph66%29.80 "HgN/A
2:30 PM88 °FScattered clouds.12 mph70%29.80 "HgN/A
2:00 PM90 °FPassing clouds.21 mph67%29.80 "HgN/A
1:00 PM90 °FScattered clouds.14 mph63%29.83 "HgN/A
12:30 PM88 °FScattered clouds.7 mph66%29.83 "HgN/A
12:00 PM88 °FScattered clouds.5 mph70%29.86 "HgN/A
11:30 AM86 °FScattered clouds.7 mph70%29.86 "HgN/A
11:00 AM86 °FScattered clouds.12 mph70%29.86 "HgN/A
10:30 AM86 °FPassing clouds.10 mph70%29.86 "HgN/A
10:00 AM86 °FPassing clouds.9 mph70%29.89 "HgN/A
9:30 AM86 °FPassing clouds.8 mph70%29.89 "HgN/A
9:00 AM86 °FPassing clouds.7 mph75%29.89 "HgN/A
8:30 AM86 °FPassing clouds.6 mph70%29.89 "HgN/A
8:00 AM86 °FPassing clouds.5 mph70%29.89 "HgN/A
7:30 AM84 °FPassing clouds.3 mph70%29.89 "HgN/A
7:00 AM82 °FPassing clouds.No wind74%29.89 "HgN/A
Weather by CustomWeather, © 2016

See weather overviewHow to use our weather pages